Sigfox identifier Datetime Temperature Humidity SNR
003B598A 2019-02-20 13:50:44 20.8 24 22.2
003B598A 2019-02-20 13:18:57 20.8 25 22.2
003B598A 2019-02-20 12:47:11 20.8 25 21
003B598A 2019-02-20 11:11:09 20.8 27 19.3
003B598A 2019-02-20 10:07:33 20.7 27 19.3
003B598A 2019-02-20 09:03:55 20.7 27 19.3
003B598A 2019-02-20 08:32:06 20.7 27 19.3
003B598A 2019-02-20 08:00:18 20.7 27 19.3
003B598A 2019-02-20 07:28:31 20.7 27 19.3
003B598A 2019-02-20 06:56:41 20.7 27 19.3
003B598A 2019-02-20 05:21:15 20.8 27 19.4
003B598A 2019-02-20 02:42:22 20.8 27 19.4
003B598A 2019-02-20 02:10:31 20.8 27 19.4
003B598A 2019-02-20 01:38:46 20.8 27 19.8
003B598A 2019-02-20 01:07:01 20.8 27 19.8
003B598A 2019-02-20 00:35:13 20.8 27 19.8
003B598A 2019-02-19 23:31:32 20.9 27 19.9
003B598A 2019-02-19 22:28:02 20.9 27 20
003B598A 2019-02-19 21:56:13 20.9 27 20
003B598A 2019-02-19 20:52:45 20.9 27 20
003B598A 2019-02-19 20:20:57 20.9 27 20.1
003B598A 2019-02-19 19:49:13 20.9 27 20.2
003B598A 2019-02-19 17:42:01 21 27 20.5
003B598A 2019-02-19 17:10:16 21 27 20.6
003B598A 2019-02-19 15:02:59 21 27 20.7
003B598A 2019-02-19 14:31:13 21 27 20.9
003B598A 2019-02-19 05:30:18 20.8 24 20.9
003B598A 2019-02-19 04:58:34 20.8 24 21.1
003B598A 2019-02-18 23:08:45 20.8 22 21.2
003B598A 2019-02-18 18:54:20 20.8 22 21.4
003B598A 2019-02-18 17:50:50 20.9 21 19.9
003B598A 2019-02-18 15:11:52 21 21 17.8
003B598A 2019-02-18 12:01:10 21.2 19 17.9
003B598A 2019-02-18 11:29:19 21.2 19 18.6
003B598A 2019-02-18 10:57:33 21.1 19 18.9
003B598A 2019-02-18 10:25:43 21.1 19 19
003B598A 2019-02-18 09:53:55 21 19 19.4
003B598A 2019-02-18 09:22:08 21 19 19.7
003B598A 2019-02-18 08:50:20 20.9 19 19.3
003B598A 2019-02-18 08:18:30 20.8 19 19.6
003B598A 2019-02-18 07:46:43 20.7 19 19.9
003B598A 2019-02-18 07:14:14 20.6 19 20
003B598A 2019-02-18 06:42:27 20.6 19 20.1
003B598A 2019-02-18 06:10:40 20.7 19 20.1
003B598A 2019-02-18 05:38:55 20.7 19 20.4
003B598A 2019-02-18 05:07:07 20.6 19 21.6
003B598A 2019-02-18 04:35:21 20.6 19 21.8
003B598A 2019-02-18 04:03:35 20.6 19 21.8
003B598A 2019-02-18 03:31:48 20.6 19 21.7
003B598A 2019-02-18 03:00:02 20.7 19 21.8
003B598A 2019-02-18 02:28:13 20.7 19 21.7
003B598A 2019-02-18 01:56:25 20.7 19 21.6
003B598A 2019-02-18 01:24:37 20.8 19 21.5
003B598A 2019-02-18 00:52:48 20.7 19 21.6
003B598A 2019-02-18 00:21:00 20.8 19 21.6
003B598A 2019-02-17 23:49:11 20.7 20 21.7
003B598A 2019-02-17 23:17:22 20.8 20 21.7
003B598A 2019-02-17 22:45:32 20.8 20 21.8
003B598A 2019-02-17 22:13:46 20.7 20 21.6
003B598A 2019-02-17 21:42:00 20.8 20 21.6
003B598A 2019-02-17 21:10:15 20.7 20 21.6
003B598A 2019-02-17 20:38:29 20.8 20 21.3
003B598A 2019-02-17 20:06:44 20.8 20 21.2
003B598A 2019-02-17 19:34:59 20.8 20 21.2
003B598A 2019-02-17 19:03:12 20.8 20 21.1
003B598A 2019-02-17 18:31:24 20.8 20 21.1
003B598A 2019-02-17 17:59:36 20.8 20 21.1
003B598A 2019-02-17 17:27:45 20.8 20 21.1
003B598A 2019-02-17 16:55:54 20.8 20 21.1
003B598A 2019-02-17 16:24:04 20.8 20 21.1
003B598A 2019-02-17 15:52:14 20.9 21 19.6
003B598A 2019-02-17 15:20:26 20.9 21 19.4
003B598A 2019-02-17 14:48:37 20.9 21 19.1
003B598A 2019-02-17 14:16:49 20.9 21 19.4
003B598A 2019-02-17 13:44:59 20.9 21 19.4
003B598A 2019-02-17 13:13:11 20.9 21 19.5
003B598A 2019-02-17 12:41:19 20.9 21 19.7
003B598A 2019-02-17 12:09:31 20.9 21 19.8
003B598A 2019-02-17 11:37:41 20.9 21 19.8
003B598A 2019-02-17 11:05:52 20.8 21 19.7
003B598A 2019-02-17 10:34:02 20.8 22 19.8
003B598A 2019-02-17 10:02:15 20.8 22 19.8
003B598A 2019-02-17 09:30:29 20.8 22 19.9
003B598A 2019-02-17 08:58:43 20.8 22 19.7
003B598A 2019-02-17 08:26:59 20.9 22 19.5
003B598A 2019-02-17 07:55:13 20.9 22 19.6
003B598A 2019-02-17 07:23:26 20.9 22 19.8
003B598A 2019-02-17 06:51:38 20.9 22 19.9
003B598A 2019-02-17 06:19:48 20.9 23 19.9
003B598A 2019-02-17 05:48:00 20.9 23 20
003B598A 2019-02-17 05:16:11 20.9 23 19.9
003B598A 2019-02-17 04:43:39 20.9 23 20
003B598A 2019-02-17 04:11:49 20.9 23 20
003B598A 2019-02-17 03:40:01 20.9 24 20.2
003B598A 2019-02-17 03:08:14 20.9 24 20.1
003B598A 2019-02-17 02:36:25 20.9 24 20.1
003B598A 2019-02-17 02:04:39 20.9 24 20
003B598A 2019-02-17 01:32:51 20.9 24 20
003B598A 2019-02-17 01:01:03 20.9 24 19.9
003B598A 2019-02-17 00:29:14 20.9 25 19.7
003B598A 2019-02-16 23:57:26 20.9 25 19.8
003B598A 2019-02-16 23:25:38 20.9 25 19.6
003B598A 2019-02-16 22:53:50 20.9 25 19.6
003B598A 2019-02-16 22:22:02 21 25 19.6
003B598A 2019-02-16 21:50:15 21 25 19.6
003B598A 2019-02-16 21:18:30 21 25 19.4
003B598A 2019-02-16 20:46:44 21 25 19.3
003B598A 2019-02-16 20:14:58 20.9 25 19.3
003B598A 2019-02-16 19:43:12 20.9 25 19.5
003B598A 2019-02-16 19:11:23 20.9 25 19.4
003B598A 2019-02-16 18:39:35 20.9 25 19.6
003B598A 2019-02-16 18:07:48 21 25 19.5
003B598A 2019-02-16 17:36:01 21 25 19.3
003B598A 2019-02-16 17:04:14 21.1 25 19.5
003B598A 2019-02-16 16:32:28 21.1 25 19.5
003B598A 2019-02-16 16:00:42 21.1 25 19.3
003B598A 2019-02-16 15:28:56 21.1 25 19.4
003B598A 2019-02-16 14:57:10 21.1 25 19.3
003B598A 2019-02-16 14:25:21 21.1 25 19.1
003B598A 2019-02-16 13:53:32 21 25 18.9
003B598A 2019-02-16 13:21:44 21 25 19.3
003B598A 2019-02-16 12:49:56 21 25 19.5
003B598A 2019-02-16 12:18:12 21 25 19.5
003B598A 2019-02-16 11:46:24 20.9 25 19.2
003B598A 2019-02-16 11:14:36 20.9 25 19.4
003B598A 2019-02-16 10:42:49 20.9 25 19.4
003B598A 2019-02-16 10:11:00 20.9 25 19.7
003B598A 2019-02-16 09:39:12 20.9 25 19.8
003B598A 2019-02-16 09:07:25 20.9 25 20
003B598A 2019-02-16 08:35:36 20.9 25 20.1
003B598A 2019-02-16 08:03:47 20.9 26 20.2
003B598A 2019-02-16 07:31:58 20.9 26 20
003B598A 2019-02-16 07:00:10 20.9 26 20.1
003B598A 2019-02-16 06:28:21 21 26 20.2
003B598A 2019-02-16 05:56:32 21 26 20.6
003B598A 2019-02-16 05:24:42 20.9 26 20.5
003B598A 2019-02-16 04:52:53 21 26 20.4
003B598A 2019-02-16 04:21:04 20.9 26 20.5
003B598A 2019-02-16 03:49:15 20.9 26 20.3
003B598A 2019-02-16 03:17:26 21 26 20.2
003B598A 2019-02-16 02:45:37 21 26 20.3
003B598A 2019-02-16 02:13:08 21 26 20.1
003B598A 2019-02-16 01:41:21 21 26 20.2
003B598A 2019-02-16 01:09:34 21 26 20.1
003B598A 2019-02-16 00:37:48 21 26 20.1
003B598A 2019-02-16 00:06:03 21.1 26 19.8
003B598A 2019-02-15 23:34:15 21.1 26 19.6
003B598A 2019-02-15 23:02:30 21.1 25 19.6
003B598A 2019-02-15 22:30:46 21.2 25 19.8
003B598A 2019-02-15 21:58:56 21.2 25 19.9
003B598A 2019-02-15 21:27:08 21.2 25 19.7
003B598A 2019-02-15 20:55:21 21.3 25 19.5
003B598A 2019-02-15 20:23:34 21.4 25 19.3
003B598A 2019-02-15 19:51:50 21.5 25 19.2
003B598A 2019-02-15 19:20:06 21.6 25 19
003B598A 2019-02-15 18:48:21 21.6 25 18.8
003B598A 2019-02-15 18:16:37 21.6 25 18.9
003B598A 2019-02-15 17:44:53 21.6 25 18.9
003B598A 2019-02-15 17:13:05 21.6 25 18.6
003B598A 2019-02-15 16:41:18 21.5 24 18.3
003B598A 2019-02-15 16:09:30 21.5 24 18.2
003B598A 2019-02-15 15:37:42 21.5 24 18.1
003B598A 2019-02-15 15:05:54 21.5 24 18
003B598A 2019-02-15 14:34:07 21.5 24 20.1
003B598A 2019-02-15 14:02:22 21.5 24 20.1
003B598A 2019-02-15 13:30:32 21.4 24 20.1
003B598A 2019-02-15 12:58:44 21.4 24 21.5
003B598A 2019-02-15 12:26:56 21.4 24 21.4
003B598A 2019-02-15 11:55:10 21.4 25 21.4
003B598A 2019-02-15 11:23:22 21.4 25 21.6
003B598A 2019-02-15 10:51:34 21.4 25 21.6
003B598A 2019-02-15 10:19:53 21.3 25 21.7
003B598A 2019-02-15 09:48:03 21.3 25 21.7
003B598A 2019-02-15 09:16:20 21.3 25 21.5
003B598A 2019-02-15 08:44:35 21.2 25 21.4
003B598A 2019-02-15 08:12:50 21.2 25 21.5
003B598A 2019-02-15 07:41:04 21.1 25 21.6
003B598A 2019-02-15 07:09:18 21.2 25 21.6
003B598A 2019-02-15 06:37:31 21.2 25 21.4
003B598A 2019-02-15 06:05:44 21.2 25 21.4
003B598A 2019-02-15 05:33:58 21.2 26 21.4
003B598A 2019-02-15 05:02:12 21.1 25 21.4
003B598A 2019-02-15 04:30:27 21.1 26 21.2
003B598A 2019-02-15 03:58:44 21.2 26 21.1
003B598A 2019-02-15 03:27:00 21.2 26 21
003B598A 2019-02-15 02:55:15 21.2 26 20.9
003B598A 2019-02-15 02:23:27 21.1 26 20.9
003B598A 2019-02-15 01:51:40 21.2 26 20.9
003B598A 2019-02-15 01:19:53 21.2 25 19.3
003B598A 2019-02-15 00:48:05 21.2 25 19.3
003B598A 2019-02-15 00:16:18 21.2 25 19
003B598A 2019-02-14 23:43:48 21.2 25 16.1
003B598A 2019-02-14 23:12:00 21.2 25 15.8
003B598A 2019-02-14 22:40:13 21.3 25 15.6
003B598A 2019-02-14 22:08:28 21.3 25 14.9
003B598A 2019-02-14 21:36:40 21.3 25 15
003B598A 2019-02-14 21:04:55 21.4 24 14.3
003B598A 2019-02-14 20:33:11 21.5 24 14.4
003B598A 2019-02-14 20:01:24 21.5 24 18.3
003B598A 2019-02-14 19:29:39 21.6 24 18.2
003B598A 2019-02-14 18:57:52 21.7 24 18
003B598A 2019-02-14 18:26:08 21.7 24 17.6
003B598A 2019-02-14 17:54:21 21.7 24 17.7
003B598A 2019-02-14 17:22:31 21.7 24 17.7
003B598A 2019-02-14 16:50:41 21.8 24 17.7
003B598A 2019-02-14 16:18:51 21.8 25 17.7
003B598A 2019-02-14 14:43:24 21.7 24 17.7
003B598A 2019-02-14 13:39:50 21.6 23 17.8
003B598A 2019-02-14 13:07:57 21.6 23 17.8
003B598A 2019-02-14 11:32:30 21.3 23 17.7
003B598A 2019-02-14 11:00:43 21.3 23 17.7
003B598A 2019-02-14 10:28:52 21.1 24 17.8
003B598A 2019-02-14 09:57:00 20.9 23 17.8
003B598A 2019-02-14 09:25:12 21 23 17.7
003B598A 2019-02-14 08:53:21 20.9 23 17.8
003B598A 2019-02-14 07:49:32 20.9 24 17.8
003B598A 2019-02-14 07:17:40 20.9 25 17.8
003B598A 2019-02-14 06:45:48 20.9 25 17.8
003B598A 2019-02-14 06:13:57 20.9 25 17.8
003B598A 2019-02-14 05:42:06 20.9 25 17.8
003B598A 2019-02-14 05:10:16 21 25 17.9
003B598A 2019-02-14 04:38:21 21 25 17.9
003B598A 2019-02-14 04:06:32 21 25 17.8
003B598A 2019-02-14 03:34:42 20.9 25 13.2
003B598A 2019-02-14 03:02:54 21 25 13
003B598A 2019-02-14 02:30:59 21 25 13
003B598A 2019-02-14 01:59:12 21 25 12.8
003B598A 2019-02-14 01:27:22 21 25 17.6
003B598A 2019-02-14 00:55:30 21 25 17.6
003B598A 2019-02-14 00:23:40 21 25 17.5
003B598A 2019-02-13 23:51:51 21 25 17.4
003B598A 2019-02-13 23:20:02 21 25 17.4
003B598A 2019-02-13 22:48:12 21.1 25 17.3
003B598A 2019-02-13 22:16:25 21.1 25 17.2
003B598A 2019-02-13 21:44:34 21.2 25 17.2
003B598A 2019-02-13 21:12:02 21.2 25 17.2
003B598A 2019-02-13 20:40:10 21.3 25 17.2
003B598A 2019-02-13 19:36:26 21.4 25 17.2
003B598A 2019-02-13 19:04:35 21.5 25 17.2
003B598A 2019-02-13 18:32:46 21.4 25 17.1
003B598A 2019-02-13 18:00:57 21.7 26 17.1
003B598A 2019-02-13 15:53:31 21.4 26 17.1
003B598A 2019-02-13 15:21:43 21.3 26 17.1
003B598A 2019-02-13 13:46:14 21.1 24 17.1
003B598A 2019-02-13 13:14:24 21.2 24 19.6
003B598A 2019-02-13 12:10:48 21.2 24 19.5
003B598A 2019-02-13 11:38:58 21.2 25 19.5
003B598A 2019-02-13 10:35:21 20.9 25 19.5
003B598A 2019-02-13 08:28:00 20.9 21 19.5
003B598A 2019-02-13 07:24:13 20.9 19 19.5
003B598A 2019-02-13 06:52:20 20.9 18 19.5
003B598A 2019-02-13 06:20:28 20.9 18 19.6
003B598A 2019-02-13 05:48:37 20.9 18 17.1
003B598A 2019-02-13 05:16:45 20.9 18 17
003B598A 2019-02-13 03:41:12 21 18 17
003B598A 2019-02-13 02:37:32 21 18 17.1
003B598A 2019-02-13 01:33:53 21 17 17.1
003B598A 2019-02-13 01:01:58 21 17 17.1
003B598A 2019-02-12 22:54:35 21.1 18 17.1
003B598A 2019-02-12 22:22:48 21.1 17 17.3
003B598A 2019-02-12 21:50:54 21.2 18 17.3
003B598A 2019-02-12 21:19:04 21.3 19 17.3
003B598A 2019-02-12 20:15:23 21.3 20 17.4
003B598A 2019-02-12 19:43:34 21.4 20 17.3
003B598A 2019-02-12 19:11:39 21.3 20 17.3
003B598A 2019-02-12 18:39:08 21.2 19 17.3
003B598A 2019-02-12 18:07:18 21.1 18 17.3
003B598A 2019-02-12 17:35:29 21.2 18 17.3
003B598A 2019-02-12 17:03:37 21.3 18 17.3
003B598A 2019-02-12 16:31:45 21.5 18 17.3
003B598A 2019-02-12 15:28:03 21.5 18 17.3
003B598A 2019-02-12 14:56:12 21.6 18 17.3
003B598A 2019-02-12 13:52:31 21.2 18 17.4
003B598A 2019-02-12 10:41:30 21.4 19 17.4
003B598A 2019-02-12 09:37:50 21.2 20 17.4
003B598A 2019-02-12 09:06:05 21.1 22 17.5
003B598A 2019-02-12 08:34:13 21 22 17.6
003B598A 2019-02-12 08:02:23 21 22 17.6
003B598A 2019-02-12 07:30:33 20.9 23 17.6
003B598A 2019-02-12 06:58:43 20.9 25 17.8
003B598A 2019-02-12 06:26:50 21 25 17.9
003B598A 2019-02-12 05:55:00 21 25 18.1
003B598A 2019-02-12 05:23:10 21 26 18.2
003B598A 2019-02-12 04:51:16 21 26 18.4
003B598A 2019-02-12 04:19:28 21 26 18.5
003B598A 2019-02-12 03:47:30 21 26 18.6
003B598A 2019-02-12 02:43:50 21 26 18.9
003B598A 2019-02-12 02:12:04 21 26 19
003B598A 2019-02-12 01:40:14 21 26 19.2
003B598A 2019-02-12 01:08:20 21 26 19.5
003B598A 2019-02-12 00:36:30 21.1 26 19.8
003B598A 2019-02-12 00:04:38 21.1 26 20.1
003B598A 2019-02-11 23:32:49 21.1 26 20.4
003B598A 2019-02-11 23:00:58 21.2 26 20.8
003B598A 2019-02-11 22:29:11 21.2 27 13.4
003B598A 2019-02-11 21:57:19 21.3 27 13.8
003B598A 2019-02-11 21:25:27 21.4 27 14.3
003B598A 2019-02-11 20:53:36 21.5 27 14
003B598A 2019-02-11 20:21:44 21.6 27 13.9
003B598A 2019-02-11 19:49:50 21.7 27 14.6
003B598A 2019-02-11 18:46:09 21.9 26 14.5
003B598A 2019-02-11 18:14:13 22.2 26 13
003B598A 2019-02-11 17:42:21 22.4 27 13.1
003B598A 2019-02-11 16:38:41 22.6 31 0